106  
ASUS41 KBOX 100210  
RWRBOX  
 
REGIONAL WEATHER ROUNDUP  
NATIONAL WEATHER SERVICE BOSTON/NORTON MA  
900 PM EST SUN DEC 09 2018  
 
NOTE: "FAIR" INDICATES FEW OR NO CLOUDS BELOW 12,000 FEET WITH NO  
SIGNIFICANT WEATHER AND/OR S TO VISIBILITY
.  
 
MAZALL-100300-  
EASTERN MASSACHUSETTS  
 
CITY SKY/WX TMP DP RH WIND PRES REMARKS
 
BOSTON CLOUDY 31 16 54 SW12 30.16F WCI 22  
BEVERLY FAIR 28 15 58 SW7 30.14F WCI 21  
LAWRENCE FAIR 30 15 53 S6 30.15F WCI 24  
BEDFORD FAIR 28 14 55 SW5 30.14F WCI 23  
BLUE HILL N/A 27 15 61 SW13 30.11F WCI 16  
NORWOOD FAIR 31 16 54 SW3 30.16F  
MARSHFIELD FAIR 32 19 59 SW8 30.16F WCI 25  
PLYMOUTH FAIR 25 19 78 SW5 30.17F WCI 19  
TAUNTON FAIR 31 19 61 W3 30.17F  
NEW BEDFORD FAIR 30 22 72 CALM 30.16F  

 
 
MAZALL-100300-  
CAPE COD AND THE ISLANDS  
 
CITY SKY/WX TMP DP RH WIND PRES REMARKS
 
FALMOUTH FAIR 30 23 74 W7G13 30.17F WCI 23  
HYANNIS FAIR 33 23 66 W6 30.15F WCI 28  
CHATHAM FAIR 34 25 69 NW6 30.18F WCI 29  
PROVINCETOWN FAIR 33 23 66 W20G25 30.18F WCI 21  
NANTUCKET FAIR 35 24 64 SW10 30.17F WCI 27  
MARTHAS VNYRD FAIR 33 25 72 SW6 30.16F WCI 28  

 
 
MAZALL-100300-  
CENTRAL AND WESTERN MASSACHUSETTS  
 
CITY SKY/WX TMP DP RH WIND PRES REMARKS
 
WORCESTER FAIR 25 13 60 W13 30.10S WCI 14  
FITCHBURG FAIR 27 13 55 CALM 30.14F  
ORANGE FAIR 20 14 77 SW6 30.14F WCI 12  
SPRINGFIELD MOCLDY 22 13 66 S6 30.16S WCI 15  
WESTFIELD FAIR 25 13 60 S6 30.17S WCI 18  
NORTH ADAMS FAIR 28 15 58 W14 30.14F WCI 17  
PITTSFIELD FAIR 25 13 60 SW7 30.10F WCI 17  

 
 
RIZALL-100300-  
RHODE ISLAND  
 
CITY SKY/WX TMP DP RH WIND PRES REMARKS
 
PROVIDENCE CLOUDY 27 19 72 SW5 30.18F WCI 22  
NEWPORT FAIR 33 23 66 W9 30.17F WCI 25  
BLOCK ISLAND FAIR 35 23 61 W12G18 30.18F WCI 27  
SMITHFIELD FAIR 29 18 63 W12 30.14F WCI 19  
WESTERLY FAIR 36 26 67 W6 30.18F WCI 31  

 
 
CTZALL-100300-  
CONNECTICUT  
 
CITY SKY/WX TMP DP RH WIND PRES REMARKS
 
BRADLEY INTL MOCLDY 27 15 61 S6 30.18F WCI 20  
HARTFORD FAIR 30 17 58 S5 30.20F WCI 25  
BRIDGEPORT FAIR 32 19 58 W7 30.20F WCI 26  
DANBURY FAIR 25 18 74 CALM 30.19F  
GROTON FAIR 34 24 67 NW7 30.18F WCI 28  
NEW HAVEN MOCLDY N/A N/A N/A W7 30.20F  
CHESTER FAIR 28 18 64 NW5 30.17S WCI 23  
MERIDEN FAIR 30 17 58 SW3 30.19F  
WILLIMANTIC FAIR 25 19 78 CALM 30.19F  
OXFORD FAIR 26 18 71 W5 30.17F WCI 20  

 
 
MEZ002-015-021-024-NHZ003-005-008-011-012-014-VTZ005-008-100300-  
NORTHERN NEW ENGLAND  
 
CITY SKY/WX TMP DP RH WIND PRES REMARKS
 
PORTLAND ME FAIR 26 18 71 SW6 30.11F WCI 19  
BANGOR ME FAIR 23 13 65 S6 30.05F WCI 16  
CONCORD NH FAIR 18 14 84 CALM 30.12S  
MANCHESTER NH FAIR 28 16 60 SW3 30.11F  
NASHUA NH FAIR 28 17 63 VRB3 30.13F  
PORTSMOUTH NH MOCLDY 27 16 61 SW7 30.11F WCI 20  
JAFFREY NH FAIR 24 16 71 SW3 30.09F  
KEENE NH FAIR 21 16 81 CALM 30.13F  
BURLINGTON VT MOCLDY 33 21 61 W8 30.11S WCI 26  
MT. WASHINGTON SNOW 5 5 100 W62 N/A VSB 1/16WCI -26  

 
 
NYZ052-076-100300-  
EASTERN NEW YORK  
 
CITY SKY/WX TMP DP RH WIND PRES REMARKS
 
ALBANY MOCLDY 23 13 65 CALM 30.19S  
NEW YORK CITY CLOUDY 35 15 44 W6 30.19F WCI 30  

 
 
ANZALL-100300-  
MARINE OBSERVATIONS  
 
STATION/POSITION TIME TEMP WIND PRES VSBY WAVE
 
AIR SEA DIR/SP/G HT/PER  
(UTC) (F) (DEG/KT/KT) (MB) (MI) (FT/S)  
BOSTON BUOY 0150 33 45 220/ 17/ 21 1020.9F 2/ 3  
BUZZARDS BAY 0100 36 240/ 20/ 24 1022.9F  
NANTUCKET SOUND 0150 36 41 240/ 14/ 17 1021.7F 1/ 3  
MASS BAY-STELLWA 0104 35 45 260/ 19/ 23 1020.5F 1 7/8 4/ 4  
ISLE OF SHOALS 0100 33 220/ 22/ 26 1020.4F  
S OF BLOCK IS 0143 50 N/A 2/ 3  

 
   
.....................KEY......................
 
 
SKY/WX - SKY CONDITION/PRESENT WEATHER  
TMP - TEMPERATURE IN FAHRENHEIT  
DWPT - DEWPOINT IN FAHRENHEIT  
RH - RELATIVE HUMIDITY IN PERCENT  
WIND - DIRECTION AND SPEED IN MPH  
PRES - MEAN SEA LEVEL PRESSURE IN INCHES OF HG  
WCI - WIND CHILL INDEX  
VSB - VISIBILITY IN MILES  
HX - HEAT INDEX  
TC - TEMPERATURE IN CELSIUS  
VRB - VARIABLE WIND DIRECTION  
N/A - NOT AVAILABLE  
 
 
CLICK HERE TO GO TO PREVIOUS BULLETINS.

The Nexlab MA Page
The Nexlab RI Page
The Nexlab NH Page
The Nexlab CT Page Main Text Page